Location: Unspecified
(50.1700°N, 6.8600°E)
Time: 03:01:49
(UTC+00:00)

Cosmos 2219 - Pass Details

Date: 24 January 2019
Orbit: 834 x 860 km, 71.1° (Epoch: 19 February)

Event Time Altitude Azimuth Distance (km) Brightness Sun altitude
Exits shadow 06:23:58 - 317° (NW) 2,738 5.3 -8.6°
Reaches altitude 10° 06:24:44 10° 313° (NW) 2,488 5.1 -8.5°
Maximum altitude 06:29:31 28° 256° (WSW) 1,531 4.1 -7.8°
Drops below altitude 10° 06:34:15 10° 199° (SSW) 2,458 5.7 -7.1°
Sets 06:36:58 0° 188° (S) 3,384 6.5 -6.7°
